GPS BIIRM-8 (PRN 05)

Last updated on Wed Aug 19 2026 00:03:21 GMT+0000 (Coordinated Universal Time)

1 35752U 09043A 26230.46227264 -.00000085 00000+0 00000+0 0 9996 2 35752 56.2486 25.0100 0052343 85.2799 285.5235 2.00578429124611
UTC large
Height (km)
Speed (km/s)
/
Latitude / Longitude
Inclination (degrees)
Orbital Period (minutes)
Azimuth
Elevation
Range (km)
Doppler Factor

Next 0 passes for location: London (51.5072 / 0.1276)

No passes found over London.